Simultaneous Nadir Overpasses (SNOs) Predictions

Prediction of SNOs between METOP-B and TERRA Satellite Orbit:

Table of predicted SNOs for the next 14.0 days since TLE Epoch: 4/30/2016
Index Date (METOP-B) Time (METOP-B) Lat,Lon (METOP-B) SZA (METOP-B ) Date (TERRA) Time (TERRA) Lat,Lon (TERRA) SZA (TERRA ) Distance(km) Time Diff (sec)
1 04/30/2016 22:20:09 81.27,-108.29 69.06 04/30/2016 22:20:37 81.28,-108.28 69.08 0.66 28
2 04/30/2016 23:10:50 -81.27, 59.16 110.94 04/30/2016 23:10:04 -81.27, 59.33 110.94 2.97 46
3 05/03/2016 17:54:32 81.27, -41.81 68.25 05/03/2016 17:54:55 81.27, -41.98 68.24 2.86 23
4 05/03/2016 18:45:13 -81.27, 125.65 111.75 05/03/2016 18:44:22 -81.27, 125.65 111.78 0.46 51
5 05/06/2016 13:28:57 81.27, 24.27 67.43 05/06/2016 13:29:14 81.26, 24.27 67.43 0.77 17
6 05/06/2016 14:19:37 -81.27,-167.86 112.52 05/06/2016 14:18:40 -81.28,-167.71 112.53 2.63 57
7 05/09/2016 09:03:21 81.27, 90.75 66.68 05/09/2016 09:03:32 81.27, 90.84 66.70 1.54 11
8 05/09/2016 09:54:01 -81.28,-101.37 113.26 05/09/2016 09:52:59 -81.27,-101.50 113.31 2.28 62
9 05/12/2016 04:37:44 81.27, 157.24 65.98 05/12/2016 04:37:49 81.27, 157.37 66.00 2.34 5




NCC Satellite Simultaneous Nadir Overpasses (SNOs) Prediction Service
